This is the latest recevied weather packets stored in our database for station/object JE0GNV-13. If no packets are shown the sender has not sent any weather packets the latest 10 day(s).
| Time | Temp. | Humidity | Pressure | Rain* | Wind** | Luminosity | Snow |
|---|---|---|---|---|---|---|---|
| 1777897802 | 10° C | 57% | 1007.7 hPa | 0 mm | - | - | - |
| 1777897202 | 10.56° C | 57% | 1007.5 hPa | 0 mm | - | - | - |
| 1777896601 | 10.56° C | 55% | 1007.5 hPa | 0 mm | - | - | - |
| 1777896000 | 10.56° C | 57% | 1007.3 hPa | 0 mm | - | - | - |
| 1777895400 | 10° C | 57% | 1007 hPa | 0 mm | - | - | - |
| 1777894801 | 10° C | 65% | 1006.9 hPa | 0 mm | - | - | - |
| 1777894201 | 10° C | 64% | 1006.6 hPa | 0 mm | - | - | - |
| 1777893600 | 10° C | 62% | 1006.3 hPa | 0 mm | - | - | - |
| 1777893000 | 10° C | 65% | 1006.2 hPa | 0 mm | - | - | - |
| 1777892400 | 10.56° C | 64% | 1005.7 hPa | 0 mm | - | - | - |
| 1777891801 | 10.56° C | 58% | 1005.5 hPa | 0 mm | - | - | - |
| 1777891201 | 11.11° C | 62% | 1005.4 hPa | 0 mm | - | - | - |
| 1777890602 | 11.67° C | 57% | 1005 hPa | 0 mm | - | - | - |
| 1777890001 | 11.67° C | 54% | 1004.7 hPa | 0 mm | - | - | - |
| 1777889400 | 11.67° C | 55% | 1004.7 hPa | 0 mm | - | - | - |
| 1777888801 | 11.67° C | 55% | 1004.2 hPa | 0 mm | - | - | - |
| 1777888201 | 12.22° C | 59% | 1004.2 hPa | 0 mm | - | - | - |
| 1777887600 | 12.22° C | 57% | 1004.2 hPa | 0 mm | - | - | - |
| 1777887001 | 12.22° C | 58% | 1004.2 hPa | 0 mm | - | - | - |
| 1777886401 | 12.22° C | 56% | 1004.1 hPa | 0 mm | - | - | - |
| 1777885801 | 12.78° C | 58% | 1004.1 hPa | 0 mm | - | - | - |
| 1777885200 | 12.78° C | 59% | 1004.1 hPa | 0 mm | - | - | - |
| 1777884600 | 12.78° C | 57% | 1004 hPa | 0 mm | - | - | - |
| 1777884000 | 13.33° C | 57% | 1004 hPa | 0 mm | - | - | - |
| 1777883402 | 13.33° C | 56% | 1003.5 hPa | 0 mm | - | - | - |
* Rain latest hour (hover to see other rain measurements)
** Current wind speed in m/s (hover to see current wind gust speed)